User: anonymous   Login
Location: Unspecified
(0.0000°N, 0.0000°E)
Time: 13:02:18
(UTC+00:00)
Language:

STSS DEMO 2 (USA 209) - Orbit

View from above orbital plane
View from above orbital plane
View from above satellite
View from above satellite

Ground track
Ground track

The orbit data is extracted from the following two-line orbital elements,

1 35938U 09052B   18322.20750285 0.00000000  00000-0  00000-0 0    02
2 35938  57.9903  60.4666 0017000  94.3661 265.6339 12.79304333    07
Epoch (UTC): 18 November 2018 04:58:48
Eccentricity: 0.0017000
inclination: 57.9903°
perigee height: 1331 km
apogee height: 1357 km
right ascension of ascending node: 60.4666°
argument of perigee: 94.3661°
revolutions per day: 12.79304333
mean anomaly at epoch: 265.6339°
orbit number at epoch: 0

The dashed part of the orbit path shows where the satellite is in the earth's shadow,  

DLR